This is the latest recevied weather packets stored in our database for station/object WP3OF-5. If no packets are shown the sender has not sent any weather packets the latest 10 day(s).
| Time | Temp. | Humidity | Pressure | Rain* | Wind** | Luminosity | Snow |
|---|---|---|---|---|---|---|---|
| 1777732283 | 28.89° C | 70% | 1017.6 hPa | 0 mm | - | - | - |
| 1777731980 | 29.44° C | 69% | 1017.5 hPa | 0 mm | - | - | - |
| 1777731677 | 30° C | 67% | 1017.8 hPa | 0 mm | - | - | - |
| 1777731374 | 29.44° C | 69% | 1017.7 hPa | 0 mm | - | - | - |
| 1777731072 | 28.89° C | 69% | 1017.6 hPa | 0 mm | - | - | - |
| 1777730771 | 28.33° C | 70% | 1017.5 hPa | 0 mm | - | - | - |
| 1777730466 | 28.33° C | 67% | 1017.6 hPa | 0 mm | - | - | - |
| 1777730162 | 28.33° C | 68% | 1018 hPa | 0 mm | - | - | - |
| 1777729859 | 27.78° C | 70% | 1017.6 hPa | 0 mm | - | - | - |
| 1777729556 | 28.33° C | 68% | 1017.7 hPa | 0 mm | - | - | - |
| 1777729253 | 28.33° C | 68% | 1017.7 hPa | 0 mm | - | - | - |
| 1777728949 | 28.33° C | 68% | 1017.6 hPa | 0 mm | - | - | - |
| 1777728646 | 28.33° C | 69% | 1017.6 hPa | 0 mm | - | - | - |
| 1777728343 | 27.78° C | 70% | 1017.8 hPa | 0 mm | - | - | - |
| 1777728040 | 28.33° C | 69% | 1017.4 hPa | 0 mm | - | - | - |
| 1777727737 | 27.78° C | 70% | 1017.5 hPa | 0 mm | - | - | - |
| 1777727434 | 26.67° C | 71% | 1017.5 hPa | 0 mm | - | - | - |
| 1777727131 | 26.67° C | 73% | 1017.3 hPa | 0 mm | - | - | - |
| 1777726830 | 26.11° C | 76% | 1017.1 hPa | 0 mm | - | - | - |
| 1777726526 | 25.56° C | 78% | 1017.1 hPa | 0 mm | - | - | - |
| 1777726223 | 25.56° C | 78% | 1017.1 hPa | 0 mm | - | - | - |
| 1777725919 | 25° C | 76% | 1017.3 hPa | 0 mm | - | - | - |
| 1777725617 | 24.44° C | 84% | 1017 hPa | 0 mm | - | - | - |
| 1777725315 | 23.89° C | 86% | 1017 hPa | 1.27 mm | - | - | - |
| 1777725011 | 23.33° C | 90% | 1017 hPa | 1.27 mm | - | - | - |
* Rain latest hour (hover to see other rain measurements)
** Current wind speed in m/s (hover to see current wind gust speed)